This is the latest recevied weather packets stored in our database for station/object KB1MS. If no packets are shown the sender has not sent any weather packets the latest 10 day(s).
| Time | Temp. | Humidity | Pressure | Rain* | Wind** | Luminosity | Snow |
|---|---|---|---|---|---|---|---|
| 1787849543 | 28.89° C | 61% | 1016.6 hPa | 0 mm | - | 352 W/m² | - |
| 1787849242 | 29.44° C | 58% | 1016.7 hPa | 0 mm | - | 209 W/m² | - |
| 1787848941 | 28.89° C | 58% | 1016.8 hPa | 0 mm | - | 876 W/m² | - |
| 1787848636 | 28.33° C | 60% | 1016.9 hPa | 0 mm | - | 762 W/m² | - |
| 1787848331 | 27.78° C | 64% | 1016.8 hPa | 0 mm | - | 802 W/m² | - |
| 1787848031 | 27.22° C | 63% | 1016.9 hPa | 0 mm | - | 743 W/m² | - |
| 1787847731 | 27.78° C | 62% | 1016.6 hPa | 0 mm | - | 173 W/m² | - |
| 1787847426 | 27.78° C | 61% | 1016.8 hPa | 0 mm | - | 717 W/m² | - |
| 1787847122 | 27.78° C | 61% | 1016.9 hPa | 0 mm | - | 201 W/m² | - |
| 1787846818 | 27.78° C | 61% | 1016.8 hPa | 0 mm | - | 632 W/m² | - |
| 1787846513 | 27.22° C | 63% | 1017 hPa | 0 mm | - | 713 W/m² | - |
| 1787846208 | 27.22° C | 63% | 1017.2 hPa | 0 mm | - | 699 W/m² | - |
| 1787845904 | 27.22° C | 63% | 1017.1 hPa | 0 mm | - | 506 W/m² | - |
| 1787845604 | 27.22° C | 62% | 1017.3 hPa | 0 mm | - | 262 W/m² | - |
| 1787845300 | 27.78° C | 61% | 1017.5 hPa | 0 mm | - | 398 W/m² | - |
| 1787844996 | 27.78° C | 62% | 1017.5 hPa | 0 mm | - | 616 W/m² | - |
| 1787844691 | 27.22° C | 64% | 1017.2 hPa | 0 mm | - | 752 W/m² | - |
| 1787844390 | 27.22° C | 63% | 1017.3 hPa | 0 mm | - | 727 W/m² | - |
| 1787844090 | 26.67° C | 64% | 1017.6 hPa | 0 mm | - | 557 W/m² | - |
| 1787843785 | 26.67° C | 66% | 1017.6 hPa | 0 mm | - | 728 W/m² | - |
| 1787843480 | 26.11° C | 65% | 1017.9 hPa | 0 mm | - | 656 W/m² | - |
| 1787843178 | 25.56° C | 66% | 1017.7 hPa | 0 mm | - | 667 W/m² | - |
| 1787842877 | 25° C | 69% | 1017.6 hPa | 0 mm | - | 644 W/m² | - |
| 1787842572 | 24.44° C | 72% | 1017.8 hPa | 0 mm | - | 611 W/m² | - |
| 1787842272 | 24.44° C | 75% | 1017.6 hPa | 0 mm | - | 595 W/m² | - |
* Rain latest hour (hover to see other rain measurements)
** Current wind speed in m/s (hover to see current wind gust speed)